Other Public Products
Issued by NWS Grand Forks, ND

Home | Current Version | Previous Version | Graphics & Text | Print | Product List | Glossary On
Versions: 1 2 3 4 5 6 7 8 9 10 11 12 13 14 15 16 17 18 19 20 21 22 23 24 25 26 27 28 29 30 31 32 33 34 35 36 37 38 39 40 41 42 43 44 45 46 47 48 49 50
000
FPUS83 KFGF 182110
OPUFGF
PRAIRIE TO PINES WEATHER ROUNDUP
NATIONAL WEATHER SERVICE EASTERN NORTH DAKOTA/GRAND FORKS ND
300 PM CST SAT FEB 18 2017

 **SATELLITE DATA USED TO AUGMENT SKY COVER AT AUTOMATED STATIONS**
 *****  WEATHER ACROSS EASTERN NORTH DAKOTA  *****

CITY           SKY/WX    TMP DP  RH WIND       PRES   REMARKS
GRAND FORKS    PTSUNNY   42  32  67 W5        29.74R
GRAND FORKS AF FAIR      42  34  74 NW7       29.75R
GRAND CITY NWS NOT AVBL
BUXTON         NOT AVBL
DEVILS LAKE    FAIR      36  32  85 W3        29.74S
FARGO          FAIR      47  39  74 SW6       29.75R
WAHPETON ARPT    N/A     46  37  71 CALM      29.76S
$$

 *****  WEATHER ACROSS CENTRAL AND WESTERN NORTH DAKOTA  *****

CITY           SKY/WX    TMP DP  RH WIND       PRES   REMARKS
JAMESTOWN      FAIR      40  35  83 NE5       29.72F
BISMARCK       PTSUNNY   38  33  82 E6        29.69F
MINOT          CLOUDY    40  33  76 N5        29.71S
MINOT AFB      NOT AVBL
GARRISON         N/A     37  32  82 SE7       29.69F
WILLISTON      CLOUDY    41  32  70 E6        29.68S
DICKINSON      FAIR      47  32  56 E17       29.58F
HETTINGER      FAIR      53  32  44 SE14      29.57F
$$

 *****  OTHER OBSERVATIONS NORTHEAST NORTH DAKOTA  *****

CITY           SKY/WX    TMP DP  RH WIND       PRES   REMARKS
WALHALLA       NOT AVBL
LANGDON        NOT AVBL
CAVALIER       FAIR      39  32  75 W9        29.72R
GRAFTON        FAIR      37  34  87 W6        29.74R
CANDO          NOT AVBL
FORT TOTTEN      N/A     40  34  80 SW2       29.95S
ROLLA          FAIR      37  30  75 NW7       29.73R
RUGBY            N/A     32  32 100 SW3       29.73S
 ***** THE ABOVE OBSERVATIONS ARE NON NWS ARE NOT QUALITY
        CONTROLLED AND MAY MIS-REPORT RAIN FOR SNOW...
$$

 *****  OTHER OBSERVATIONS SOUTHEAST NORTH DAKOTA *****

CITY           SKY/WX    TMP DP  RH WIND       PRES   REMARKS
COOPERSTOWN    FAIR      36  34  93 W5        29.75S
VALLEY CITY    FAIR      41  39  93 N5        29.76F
OAKES          NOT AVBL
GWINNER        FAIR      46  43  87 CALM      29.75S
SHEYENNE NWR     N/A     47  37  67 CALM      29.95S
BUFFALO        NOT AVBL
WYNDMERE       NOT AVBL
 ***** THE ABOVE OBSERVATIONS ARE NON NWS ARE NOT QUALITY
       CONTROLLED AND MAY MIS-REPORT RAIN FOR SNOW...
$$

  *****  WEATHER ACROSS NORTHERN MINNESOTA  *****

CITY           SKY/WX    TMP DP  RH WIND       PRES   REMARKS
FLAG ISLAND    FAIR      46  28  49 W17       29.62R
WARROAD        FAIR      43  34  70 W12       29.67R
ROSEAU         FAIR      43  34  70 SW8       29.68R
HALLOCK        FAIR      39  34  81 NW5       29.71R
THF RVR FALLS  FAIR      38  32  79 W10       29.74R
HALSTAD          N/A     43  37  82 W6          N/A
FOSSTON        FAIR      39  34  81 SW6       29.74S
BAUDETTE       FAIR      43  31  62 W13       29.65R
WASKISH        FAIR      41  34  75 SW14      29.69R
CROOKSTON      FAIR      41  36  81 SW7       29.75S
$$
  *****  WEATHER ACROSS CENTRAL AND WEST MINNESOTA  *****

CITY           SKY/WX    TMP DP  RH WIND       PRES   REMARKS
BEMIDJI        FAIR      42  32  67 W9        29.72R
PARK RAPIDS    FAIR      43  31  62 W7        29.72S
WADENA         FAIR      46  34  61 W8        29.74R
DETROIT LAKES  FAIR      45  34  65 W5        29.75S
MOORHEAD       FAIR      45  39  81 W3        29.76S
FERGUS FALLS   FAIR      46  39  76 CALM      29.80S
ELBOW LAKE     FAIR      47  42  80 W6        29.77S
MORRIS MN      FAIR      52  43  71 S5        29.76F
STAPLES        FAIR      46  36  66 W5        29.74R
WHEATON        FAIR      52  43  71 E5        29.77F
$$
  *****  WEATHER ELSEWHERE ACROSS MINNESOTA  *****

CITY           SKY/WX    TMP DP  RH WIND       PRES   REMARKS
DULUTH         FAIR      51  31  46 W17       29.67R
INTRNTL FALLS  FAIR      50  32  50 W13G21    29.62R
ELY            FAIR      50  30  46 W14G22    29.62R
CLOQUET        FAIR      50  28  43 W12       29.69R
BRAINERD       FAIR      50  31  48 W7        29.73R
HIBBING        FAIR      51  30  44 W12G22    29.66R
ALEXANDRIA     FAIR      48  39  71 W8        29.77S
SAINT CLOUD    FAIR      55  38  52 W7        29.76R
MINNEAPOLIS    FAIR      57  34  41 SW8       29.77S
$$

  *****  WEATHER ACROSS SOUTH DAKOTA  *****

CITY           SKY/WX    TMP DP  RH WIND       PRES   REMARKS
SIOUX FALLS    FAIR      59  41  51 SE8       29.76F
BROOKINGS      FAIR      56  38  50 SE7       29.75F
WATERTOWN      FAIR      48  40  73 S5        29.75S
HURON          FAIR      54  39  57 SE7       29.73F
SISSETON         N/A     53  40  61 SW6       29.74F
ABERDEEN       FAIR      46  37  71 SE6       29.74F
MITCHELL       FAIR      60  39  45 S9        29.75F
PIERRE         FAIR      61  33  35 SE16      29.65F
MOBRIDGE       FAIR      43  31  62 SE13      29.63S
RAPID CITY     FAIR      65  31  28 W6G22     29.58F
$$

  *****  SOME WEATHER IN NEARBY STATES *****

CITY           SKY/WX    TMP DP  RH WIND       PRES   REMARKS
GLASGOW MT     CLOUDY    41  33  73 E15G22    29.59S
GREAT FALLS MT FAIR      50  28  42 NE7       29.43F
CHEYENNE WY    FAIR      58  20  22 S15G22    29.69F
SCOTTSBLUFF NE FAIR      66  23  19 SE14      29.65F
OMAHA NE       FAIR      65  34  31 CALM      29.77F
DES MOINES IA  FAIR      66  32  28 NW7       29.79R
DAVENPORT IA   FAIR      66  33  29 NW6       29.75S
CHICAGO IL     FAIR      70  33  25 W9        29.70R
EAU CLAIRE WI  FAIR      51  35  54 W7        29.76R
LA CROSSE WI   FAIR      60  36  40 W6        29.76S
$$

  *****  SOME NATIONAL WEATHER *****

CITY           SKY/WX    TMP DP  RH WIND       PRES   REMARKS
LA GUARDIA NY  PTSUNNY   64  33  31 SW10      29.67S
RALEIGH NC     CLOUDY    70  28  21 W17       29.88S
ATLANTA GA     PTSUNNY   59  48  67 SW7       29.93F
NEW ORLEANS LA FAIR      69  62  78 N8        29.89F
OKLAHOMA CITY  FAIR      68  50  52 SE8       29.78F
ALBUQUERQUE NM PTSUNNY   56  32  40 S15G21    29.75F
SALT LAKE CITY CLOUDY    55  33  43 S12       29.59F
LOS ANGELES CA CLOUDY    58  53  84 E6        29.57S
BOISE ID       CLOUDY    50  41  71 SE18      29.44F
SEATTLE WA     LGT RAIN  44  42  93 S7        29.41F
$$

*** WEATHER ACROSS MANITOBA...SASKATCHEWAN AND ONTARIO ***
                ***ONTARIO***

CITY           SKY/WX    TMP DP  RH WIND       PRES   REMARKS
GERALDTON      CLOUDY    39  32  75 W12G18    29.44R
THUNDER BAY    MOSUNNY   52  32  46 W12       29.52R
SIOUX LOOKOUT  MOSUNNY   45  30  57 NW17G26   29.51R
TORONTO        MOSUNNY   54  37  54 W26G33    29.55R
BIG TROUT LK   LGT SNOW  32  30  93 NE8       29.36  WCI  25
PICKLE LAKE    LGT RAIN  36  32  87 W15G23    29.42R
DRYDEN         SUNNY     46  30  53 W21G29    29.53R
KENORA         MOSUNNY   46  28  49 W12G22    29.59R
$$
                *** MANITOBA***

CITY           SKY/WX    TMP DP  RH WIND       PRES   REMARKS
BRANDON        PTSUNNY   37  30  75 W12       29.70S
DAUPHIN        SUNNY     41  30  65 W13       29.68R
ISLAND LAKE    FLURRIES  25  21  86 NW13G20   29.55R WCI  13
PILOT MOUND      N/A     37  30  75 W7          N/A
THE PAS        CLOUDY    34  27  75 NW15      29.67R WCI  24
THOMPSON       CLOUDY    19  14  79 NW9       29.63R WCI   9
WINNIPEG       MOSUNNY   37  32  81 W14       29.69R
LYNN LAKE      CLOUDY    23  19  86 NW9       29.64R WCI  13
CHURCHILL      FLURRIES  10   7  85 E14       29.71R WCI  -5
GILLAM         FLURRIES  18  14  86 N15       29.58R WCI   3
$$
                ***SASKATCHEWAN***

CITY           SKY/WX    TMP DP  RH WIND       PRES   REMARKS
ESTEVAN        CLOUDY    34  32  93 E7        29.71R
KINDERSLEY     CLOUDY    37  32  81 E12       29.62F
LLOYDMINSTER   PTSUNNY   36  32  87 E8        29.65S
PRINCE ALBERT  MOSUNNY   37  30  75 NW7       29.70S
REGINA         CLOUDY    36  30  80 S6        29.71R
YORKTON        SUNNY     41  30  65 NW8       29.70R



USA.gov is the U.S. government's official web portal to all federal, state and local government web resources and services.